Theta_e
313 313 313 313 312 312 311 311 312 311 310 310 311 311 311 311 311 311 311 311 311 312 311 311 311 312 309 297 296 306 317 311 318 313 309 305 297 293 290 290 290 286 289 291 295 294 293
312 312 312 312 311 310 310 310 310 310 310 310 310 310 309 310 310 310 311 311 311 310 310 310 311 312 303 291 304 307 305 306 311 310 308 306 300 296 292 290 290 291 292 293 292 292 293
311 311 311 311 310 310 310 310 310 310 309 309 309 309 309 310 310 310 310 310 310 310 310 311 311 308 300 295 306 306 305 302 308 312 307 310 305 300 295 290 294 292 287 290 291 292 292
311 311 310 310 310 309 309 309 310 309 309 310 311 310 309 310 310 311 311 310 310 310 311 311 311 306 295 305 307 305 305 302 304 304 303 304 310 300 294 294 293 288 287 284 289 292 293
310 310 310 310 309 309 308 309 309 309 309 309 310 310 309 308 310 311 310 310 311 310 311 311 305 302 291 307 303 305 305 300 302 303 303 306 308 300 297 290 286 287 282 282 287 291 292
309 310 309 309 309 308 308 308 308 308 308 308 309 309 309 308 309 310 309 308 308 307 307 307 305 296 297 295 304 307 308 304 300 300 297 297 299 294 293 289 284 283 285 287 287 290 290
308 309 309 309 308 307 307 307 307 307 308 308 307 308 308 309 309 309 306 299 289 289 295 293 295 296 298 304 307 305 307 302 301 297 289 295 294 289 292 295 293 290 288 287 289 294 290
308 308 308 308 307 306 306 306 306 307 307 307 307 307 308 309 307 308 302 292 294 293 286 294 294 295 300 300 294 298 306 298 295 291 292 291 289 295 297 296 293 290 288 287 290 292 289
308 308 306 306 306 306 305 306 306 307 308 308 308 308 308 308 308 299 292 294 299 296 285 289 293 293 294 297 293 294 300 300 295 293 289 288 293 298 295 293 290 290 289 287 288 291 290
307 307 306 305 305 305 305 305 305 306 307 308 308 308 307 308 299 294 293 300 296 296 279 282 290 295 298 301 294 302 302 297 296 291 292 290 295 295 294 292 292 286 294 291 291 287 282
306 306 305 305 305 305 304 305 306 306 308 308 308 307 307 307 300 294 297 296 298 294 270 286 293 302 302 297 298 299 307 299 291 292 295 291 293 293 292 293 296 290 296 294 293 286 282
305 305 305 305 304 304 304 306 306 307 307 308 308 308 307 300 296 297 298 300 297 283 273 284 292 292 292 294 296 301 301 302 299 292 295 294 300 298 297 298 298 298 295 293 289 283 278
304 304 304 305 304 304 304 306 307 307 307 308 308 308 304 302 293 296 297 296 282 276 287 284 287 291 290 290 293 294 293 292 289 285 285 293 295 298 301 294 298 295 291 280 277 276 277
304 304 304 304 303 304 305 306 306 307 307 307 307 306 298 299 298 297 297 289 276 282 283 291 290 289 287 291 292 293 288 288 293 293 287 286 284 295 300 296 293 291 289 278 274 275 277
304 304 304 304 303 304 305 306 306 306 307 306 305 295 293 295 297 297 291 278 279 286 289 288 288 285 285 290 291 292 287 289 294 296 288 288 287 298 299 299 297 293 287 288 281 281 279
304 304 304 304 305 304 305 306 306 307 307 306 298 289 290 297 298 294 284 280 287 289 291 291 283 287 282 285 287 290 288 293 292 297 300 293 288 296 298 300 299 295 294 285 283 277 276
304 304 304 304 305 305 305 306 306 307 306 305 290 286 293 299 296 288 281 284 286 291 292 288 287 286 286 287 288 288 289 294 295 297 298 297 292 291 297 295 292 291 290 288 286 283 279
303 304 304 304 305 305 304 305 306 306 305 302 291 282 294 296 286 287 284 287 291 290 293 291 291 289 287 287 287 288 289 293 301 299 294 298 293 286 288 297 299 294 290 286 280 282 283
303 304 305 306 305 305 305 305 306 306 305 300 289 289 295 293 282 284 287 288 291 290 291 290 288 288 291 290 286 290 291 300 301 298 295 298 292 285 288 293 297 292 293 290 288 288 284
303 304 304 305 305 305 305 305 306 306 305 297 290 282 287 288 289 287 285 286 286 292 291 292 292 292 288 288 291 289 291 299 302 301 303 302 291 285 282 286 291 289 292 292 291 284 286
303 304 304 304 304 305 305 305 306 306 305 295 289 282 290 284 285 286 288 287 285 286 291 292 290 290 289 285 289 289 292 293 299 299 298 299 289 291 293 294 294 291 291 291 290 290 288
303 303 304 304 305 304 305 305 305 305 305 294 290 288 291 287 288 286 288 286 285 287 289 288 288 290 291 289 289 288 291 293 294 298 295 298 288 292 292 296 296 292 293 293 293 295 295
302 303 304 303 304 304 305 305 305 306 303 297 298 297 291 289 287 286 286 287 287 289 291 292 291 290 290 292 295 295 296 296 295 295 294 294 291 286 286 295 295 289 294 293 296 297 297
302 303 303 303 303 304 305 304 304 306 305 300 298 296 289 285 286 286 288 289 288 289 288 291 294 291 295 299 299 299 298 298 298 297 299 293 292 288 286 290 281 291 300 300 297 299 300
302 302 302 302 303 304 304 304 304 305 306 300 299 295 292 285 288 288 288 289 290 291 291 292 294 297 300 297 292 290 288 289 291 294 295 295 291 289 286 285 292 296 298 298 295 295 302
301 302 302 302 304 304 304 305 305 305 306 298 296 298 295 288 286 290 289 289 287 288 290 291 297 301 299 293 289 283 282 288 287 290 296 297 297 291 289 286 283 293 300 303 302 290 295
300 301 302 303 303 304 304 305 305 306 306 303 299 299 295 289 292 290 288 288 292 290 287 291 294 295 298 290 286 286 286 291 286 287 287 289 288 287 287 286 291 299 302 301 287 289 296
300 301 302 303 304 304 304 305 306 306 306 303 299 297 296 292 292 293 294 292 292 291 288 292 291 292 291 286 287 287 286 289 288 291 291 287 287 287 286 288 285 296 299 292 293 296 293
300 300 301 302 303 303 304 305 306 306 305 306 298 300 302 294 293 295 298 300 298 297 293 294 292 293 294 286 288 288 287 288 286 286 293 286 289 284 286 285 290 293 292 295 295 291 291
Wind_Speed
18 18 19 19 19 19 20 20 20 21 21 22 22 23 23 23 24 24 24 24 22 22 21 18 16 13 5 7 16 6 16 11 5 13 12 9 9 9 9 7 5 4 4 6 12 8 6
18 19 19 19 20 20 20 20 20 21 20 21 22 23 24 24 25 25 24 24 23 23 22 20 16 13 7 20 9 8 9 6 6 9 13 7 10 6 6 6 10 6 11 10 5 6 5
19 19 19 19 20 20 21 21 21 21 21 21 21 22 24 25 25 25 24 26 27 25 25 22 18 11 16 26 7 6 5 2 1 5 7 13 3 10 8 3 8 4 3 5 5 8 8
19 19 20 20 20 20 21 21 22 22 22 21 20 21 25 26 27 26 27 27 31 30 29 24 18 10 16 5 22 28 23 21 15 6 1 5 6 2 5 2 3 5 6 9 7 9 8
19 18 19 19 20 20 21 22 22 23 24 24 23 23 25 28 29 29 29 30 35 31 24 16 8 8 12 6 11 14 19 15 19 19 6 9 6 5 2 4 3 4 5 5 2 10 7
19 19 19 20 21 21 22 23 23 24 25 25 25 24 25 27 29 30 29 33 29 10 4 8 0 5 7 7 5 5 5 17 8 10 9 8 5 7 8 9 17 6 6 4 7 8 10
18 20 20 21 22 23 23 24 25 25 26 27 28 26 26 26 29 29 25 9 7 3 3 9 11 11 2 6 3 5 6 13 5 7 15 12 11 23 25 22 13 12 4 9 5 7 6
19 20 21 22 22 23 24 25 26 27 28 29 29 29 28 27 29 31 7 2 4 2 16 18 28 24 27 18 16 18 14 8 8 8 13 8 28 18 9 14 15 13 6 4 2 4 5
19 20 21 22 23 23 25 26 26 26 27 28 29 29 29 28 29 6 1 6 4 6 7 12 11 8 9 12 20 31 19 7 7 10 24 18 5 17 17 17 19 19 14 6 5 2 1
20 21 22 23 24 24 25 26 27 28 28 28 30 29 30 28 9 2 5 2 2 1 6 11 5 5 1 4 7 15 19 21 13 18 19 17 14 24 22 21 17 18 10 6 6 4 3
21 22 22 23 24 25 25 26 28 29 28 29 31 32 31 23 5 4 5 2 2 3 6 5 2 8 2 6 12 0 7 21 27 17 15 12 13 16 23 21 19 7 16 11 4 4 2
20 21 22 23 24 24 25 24 27 28 29 31 32 32 29 3 2 7 5 7 2 3 7 8 1 8 9 14 2 10 10 12 15 19 15 12 13 15 19 20 17 13 14 8 5 5 4
21 22 23 23 24 24 24 25 26 28 29 30 32 32 16 2 5 0 3 3 1 4 8 8 10 9 20 8 5 4 8 11 11 17 21 17 18 15 17 17 17 18 17 5 1 3 6
20 21 22 23 24 23 23 24 26 28 29 31 33 27 4 4 7 2 1 2 1 5 13 13 14 21 11 7 1 3 9 8 11 6 15 16 15 16 17 21 14 13 12 7 7 6 4
20 20 22 23 23 23 23 25 27 28 30 33 27 5 5 5 7 2 2 3 3 6 10 12 16 8 4 6 5 4 3 4 13 4 8 12 9 17 13 10 16 23 11 9 7 1 7
19 21 21 22 21 23 23 26 27 28 29 32 9 4 5 9 3 3 4 4 5 12 14 7 7 5 6 7 8 7 5 2 4 2 4 6 5 18 12 12 9 23 12 9 2 6 6
18 21 21 22 20 22 24 26 28 29 28 25 3 5 5 16 2 6 4 6 15 16 18 5 3 6 9 11 5 5 2 3 8 5 10 3 4 1 14 6 18 10 12 5 6 4 7
18 20 22 22 21 20 22 24 27 28 29 8 4 4 5 7 7 3 7 13 18 14 14 5 6 6 5 8 7 4 4 6 9 0 3 3 3 3 5 7 12 4 14 6 7 2 3
18 19 21 21 20 20 21 23 26 27 26 6 7 4 5 5 8 10 8 12 8 18 17 4 4 3 7 4 5 5 6 6 12 7 5 4 3 6 10 7 7 7 5 6 5 4 6
18 19 20 22 21 20 20 22 24 26 26 4 4 6 5 5 2 9 14 10 18 18 14 12 7 6 7 3 7 6 10 5 4 5 8 3 3 5 4 7 11 14 13 8 6 5 5
18 19 20 20 21 22 21 22 22 22 25 3 4 3 2 8 9 13 16 8 23 17 4 11 5 18 15 4 7 6 7 10 8 8 4 4 3 1 9 16 15 12 16 13 8 6 7
17 18 19 20 21 21 21 21 22 20 22 3 4 3 2 10 10 13 9 10 20 21 9 10 9 22 15 4 5 8 8 4 7 6 5 4 2 1 5 10 9 9 13 15 7 8 10
17 18 19 20 21 22 21 20 21 20 11 3 1 3 3 6 6 9 7 14 25 22 8 12 19 17 11 9 15 14 7 8 6 6 5 6 3 5 4 3 5 7 2 4 6 1 19
17 17 18 19 20 21 20 20 19 19 12 2 3 3 3 6 8 10 17 18 21 22 11 16 14 7 8 19 16 6 5 5 6 3 4 3 4 4 3 3 3 3 2 8 18 9 12
17 17 17 18 19 20 20 19 18 18 16 1 2 2 3 7 10 12 18 16 18 16 10 15 17 15 14 8 4 4 2 2 3 4 6 4 3 4 4 4 3 4 5 3 5 9 12
17 18 18 18 19 20 20 19 18 17 16 2 3 2 3 6 4 12 13 14 11 9 7 9 12 9 5 2 3 3 3 2 3 3 5 6 5 3 2 5 3 1 3 10 1 8 14
17 18 19 19 19 21 20 19 19 18 17 6 3 3 3 5 7 4 8 6 7 4 6 8 18 6 6 4 3 2 1 3 1 1 4 4 2 1 5 4 3 1 4 7 4 9 16
17 18 19 20 21 21 20 20 19 17 16 6 5 3 2 4 13 6 4 11 12 5 5 10 8 2 3 5 3 2 2 3 1 3 7 3 2 3 2 4 4 12 7 3 11 15 17
17 18 19 21 21 19 20 21 20 16 14 11 3 2 2 4 10 5 17 19 15 19 7 4 5 9 3 3 2 3 2 2 2 2 7 3 3 5 6 4 7 11 13 13 13 19 14
Wind_Direction
11 9 7 7 3 0 357 355 352 350 349 346 343 340 337 332 329 325 322 318 313 305 305 304 303 298 299 234 249 282 304 336 305 162 192 179 161 160 178 190 185 204 220 209 230 229 239
10 9 8 4 3 359 358 354 352 350 347 345 342 339 334 331 328 324 319 312 307 302 301 298 289 277 239 247 264 256 272 285 192 160 182 197 200 178 170 202 183 205 194 226 232 227 230
11 9 7 5 1 360 356 352 349 346 344 343 339 334 330 326 322 318 314 310 305 301 298 290 279 259 239 240 251 221 215 237 270 168 178 207 209 173 147 195 208 230 261 272 205 218 249
9 8 5 1 359 356 351 348 345 343 341 337 334 331 328 323 319 317 315 309 301 301 294 279 264 239 255 241 244 252 259 268 273 277 162 301 256 299 199 268 50 145 158 232 198 176 240
8 4 1 359 356 352 347 344 342 339 337 335 332 329 325 322 318 317 316 310 302 302 293 261 222 195 259 308 242 247 228 218 213 247 235 260 167 210 212 111 6 232 186 175 180 178 194
2 1 357 353 352 348 345 344 340 337 336 335 333 329 323 321 317 315 318 314 303 304 72 124 230 189 257 234 211 212 189 200 213 192 192 199 194 182 204 186 215 190 155 181 173 204 185
360 356 354 351 349 346 344 341 339 337 336 333 332 329 323 323 318 316 325 330 10 325 302 211 200 212 301 207 199 183 120 143 222 178 182 180 186 205 197 206 218 192 154 183 187 195 147
356 355 351 351 348 344 343 341 339 336 335 334 330 329 326 325 320 319 316 309 253 278 291 251 249 251 247 258 275 253 144 147 178 199 182 166 220 198 188 192 204 232 190 188 252 144 140
354 353 354 350 347 346 344 341 339 336 335 332 328 326 323 324 319 341 172 245 305 341 271 277 222 228 233 205 237 255 218 199 191 190 191 198 240 177 190 184 194 210 206 168 131 63 48
355 354 355 350 347 346 344 341 339 336 332 328 324 324 327 333 324 313 280 249 6 183 286 274 229 271 160 218 225 234 219 211 215 197 195 224 218 180 189 203 184 205 174 156 148 93 188
356 354 352 350 348 347 344 339 337 336 331 327 323 327 329 327 284 292 261 354 344 111 308 320 39 5 235 174 272 216 190 197 213 202 169 207 179 197 199 199 183 197 161 178 142 132 102
355 353 352 350 348 346 344 337 335 335 331 326 325 327 332 23 285 243 305 319 110 238 268 302 52 344 303 304 263 328 248 179 202 197 217 220 177 196 196 196 179 155 159 144 71 105 256
355 354 351 349 348 346 343 337 336 333 329 325 328 325 329 247 254 235 331 300 243 216 320 320 326 343 316 296 286 29 338 173 164 173 203 195 224 200 165 178 195 162 154 118 106 190 216
354 351 350 348 346 345 342 339 335 332 330 329 327 320 284 230 264 327 340 289 277 281 294 324 317 314 287 330 221 116 335 197 227 207 166 187 197 205 184 185 173 183 161 149 154 153 157
351 350 350 349 347 346 344 340 337 336 333 332 327 332 321 266 283 117 33 353 303 312 317 309 310 288 285 329 312 295 150 278 210 200 163 186 218 177 190 158 160 186 195 153 106 167 112
344 349 348 348 345 344 345 342 337 338 337 335 327 352 281 309 335 72 64 303 283 316 304 299 295 303 304 320 317 340 357 224 299 256 7 223 123 177 191 163 165 181 154 155 18 147 125
344 342 344 346 345 343 344 343 338 339 341 331 29 1 272 333 70 40 31 287 302 309 311 289 302 283 278 304 303 294 236 221 201 199 250 315 113 339 176 183 169 145 169 133 135 128 142
344 342 343 349 350 347 347 344 340 340 343 342 343 350 313 349 33 353 341 326 308 309 321 271 273 257 264 302 307 313 309 320 180 345 168 157 124 110 176 174 187 135 169 119 129 175 88
342 341 343 345 351 349 347 345 341 342 349 332 338 290 316 25 18 354 328 318 316 325 327 325 290 333 296 289 289 247 283 322 154 144 182 200 122 129 116 88 210 212 180 141 112 102 186
339 341 342 344 348 348 348 345 344 341 342 21 357 336 323 15 274 339 333 331 334 334 319 328 291 311 302 274 221 293 323 325 49 21 215 199 141 187 179 129 134 188 181 165 134 117 160
336 339 341 344 346 348 349 347 343 342 337 46 33 333 325 316 336 328 326 301 334 342 311 326 314 337 344 326 352 356 350 333 44 15 351 208 167 210 130 136 146 150 171 175 168 159 146
333 338 337 342 345 347 346 345 340 344 337 53 358 343 297 290 294 324 329 332 332 328 317 318 320 327 325 318 343 312 325 329 17 26 309 228 108 72 73 100 116 140 168 177 161 95 65
333 334 338 343 343 343 344 344 343 347 4 329 326 251 251 301 303 327 337 324 322 323 301 304 315 316 313 338 314 297 274 276 274 314 340 19 56 62 39 22 116 75 27 126 107 121 140
332 333 336 337 340 337 338 340 342 337 5 295 298 300 291 286 324 320 312 318 317 317 302 301 316 309 311 308 298 256 228 237 271 333 7 348 50 64 93 31 108 257 230 107 91 51 102
327 329 333 335 334 332 335 337 335 333 336 266 274 296 296 296 307 305 322 318 311 316 321 309 318 307 305 302 319 326 342 47 26 44 16 35 64 72 106 83 165 69 134 130 121 50 127
325 326 330 329 329 331 333 333 332 330 327 300 273 194 285 300 270 322 309 322 314 329 319 295 316 316 320 315 335 4 341 29 351 59 41 53 43 55 98 95 175 43 111 111 89 87 115
325 327 327 326 328 329 334 330 328 327 327 323 268 216 259 269 283 326 303 312 297 319 276 294 336 326 11 337 337 339 344 0 338 175 139 79 48 90 109 99 92 353 340 328 145 157 135
324 326 327 324 327 330 328 324 322 327 327 335 283 201 224 281 287 260 247 289 296 292 307 304 319 10 306 353 339 340 320 8 299 292 121 114 161 79 81 106 110 356 328 111 139 105 109
325 326 326 320 325 325 322 323 322 328 322 333 265 236 195 236 270 245 273 264 248 249 272 277 280 292 304 319 284 299 312 328 328 157 30 64 358 116 38 57 33 37 78 73 101 104 108